Dewpoint
49 48 48 48 47 46 46 47 48 48 48 48 49 49 50 50 50 51 52 52 52 51 51 51 51 51 44 31 30 25 58 57 46 39 34 31 31 27 24 22 21 16 14 14 14 16 14
47 48 48 50 48 48 47 48 48 48 49 49 50 49 50 50 50 50 51 52 52 52 51 51 51 51 41 28 23 21 25 19 21 36 36 34 29 27 25 22 19 17 15 14 15 15 16
48 48 48 48 49 48 46 47 47 47 47 47 48 49 49 50 50 51 51 51 51 52 51 50 51 46 39 27 22 25 22 21 17 19 33 33 29 27 26 23 21 20 18 17 16 16 17
47 47 48 48 48 48 48 47 46 47 46 47 47 49 50 51 51 51 51 51 51 51 51 51 50 45 35 26 25 22 21 19 24 21 20 32 34 32 28 26 23 20 21 19 18 17 17
46 46 47 48 48 49 48 47 46 46 46 46 46 49 50 51 51 51 50 50 51 51 51 50 47 43 31 36 25 22 21 19 21 25 22 13 28 30 30 26 24 24 20 21 19 19 18
45 46 46 46 46 47 48 48 47 47 47 46 47 48 49 50 50 50 49 49 49 50 46 45 42 37 36 20 19 24 29 36 23 21 18 16 20 24 26 24 21 20 20 21 20 19 19
44 45 46 45 45 45 45 47 47 47 47 46 46 47 48 50 50 49 46 43 35 40 43 35 32 33 26 23 20 19 23 35 27 20 19 17 15 13 16 25 24 23 22 21 22 20 19
45 44 45 46 45 45 45 44 47 47 46 44 44 46 48 49 49 49 45 37 35 37 34 32 28 25 23 23 19 18 21 29 32 26 25 21 17 17 17 14 17 18 19 22 24 22 19
45 45 45 44 44 44 45 46 47 46 46 44 45 46 47 49 49 45 41 36 37 40 34 27 26 25 24 26 23 21 17 17 28 28 28 29 27 26 21 21 19 21 23 25 23 23 22
43 43 43 43 44 44 45 45 45 45 45 45 45 46 48 49 43 42 38 37 39 44 31 26 23 23 27 28 26 23 23 17 16 24 24 29 30 28 27 30 32 27 27 26 24 24 23
42 44 44 44 43 44 44 44 44 45 44 44 45 44 47 47 40 36 39 39 41 43 22 22 17 28 25 25 25 23 26 22 15 21 21 25 28 29 30 34 33 34 32 31 31 25 25
41 42 43 43 43 44 44 44 44 43 44 45 44 44 46 39 41 40 43 43 43 33 21 9 21 23 24 24 24 23 26 21 18 18 23 24 27 31 35 36 32 33 31 32 30 26 23
42 43 42 42 43 43 43 43 43 44 44 44 44 44 43 37 37 43 46 41 32 21 6 6 12 16 14 13 15 21 25 24 16 19 21 22 23 30 35 34 34 31 27 29 26 24 23
41 42 41 40 41 41 41 42 43 42 44 43 44 44 41 35 38 42 42 36 22 7 9 15 13 12 11 11 17 21 23 23 22 16 12 12 15 19 27 29 29 28 26 31 24 25 23
41 41 40 40 41 41 41 41 43 42 43 44 43 38 36 39 43 44 41 27 13 15 8 7 12 12 4 9 16 21 22 21 26 19 16 16 12 16 24 25 27 32 29 32 31 30 33
40 41 40 40 40 41 40 41 41 43 43 43 35 34 34 41 46 43 36 28 20 15 17 19 14 7 7 7 15 16 16 29 34 28 23 24 20 21 23 26 30 32 30 27 29 25 27
40 40 40 40 40 40 41 40 40 42 44 39 36 30 33 42 47 40 30 26 23 20 20 20 17 15 13 14 16 18 26 33 31 25 29 28 23 22 22 24 27 28 28 32 32 30 27
39 40 40 40 41 40 41 40 41 41 42 39 34 30 42 43 36 36 32 26 28 20 18 17 19 21 22 21 19 19 20 28 25 25 28 34 28 23 22 26 26 28 27 28 30 32 30
40 40 40 40 40 41 41 41 41 41 41 37 33 26 35 44 30 31 29 27 26 23 20 19 17 19 20 19 18 18 21 26 25 23 26 26 26 25 26 31 26 25 30 32 28 34 35
38 39 40 41 41 40 40 40 42 42 41 39 37 31 27 41 35 31 29 25 24 22 21 19 17 17 17 17 18 21 21 22 23 23 36 31 28 29 29 33 34 30 29 30 31 28 31
39 40 40 41 41 42 41 41 41 41 40 41 36 31 30 30 30 30 28 27 26 19 20 20 19 18 17 18 18 18 20 20 21 30 25 28 28 30 26 32 33 36 34 33 35 35 31
39 41 41 41 42 42 42 41 42 41 41 40 33 28 24 27 29 28 27 27 23 24 24 24 22 19 20 19 20 22 22 24 27 23 25 25 26 25 23 24 33 26 25 24 28 31 25
39 40 42 43 43 43 44 43 43 43 42 39 35 32 34 28 22 25 29 25 23 25 26 33 29 28 22 19 28 34 33 34 34 31 27 28 25 23 20 21 24 25 25 23 23 24 25
39 40 42 43 43 44 44 44 44 43 43 38 32 30 32 27 23 23 19 21 25 21 25 26 28 32 32 36 32 34 32 30 34 32 28 26 25 26 26 25 21 22 21 21 22 23 23
41 41 42 43 44 44 44 45 45 43 43 41 36 39 34 28 22 19 20 21 28 28 28 28 27 33 41 39 29 25 26 26 26 26 26 28 27 28 25 22 19 17 16 16 17 17 21
42 42 43 44 44 44 45 45 45 45 43 41 39 41 38 34 25 19 17 19 19 23 26 29 32 40 41 34 31 23 20 20 21 23 26 27 31 29 28 22 18 19 16 25 23 19 28
43 43 43 44 44 44 44 45 45 45 45 42 37 43 39 33 29 28 24 22 22 23 27 33 37 38 39 33 28 24 23 23 23 23 25 27 30 28 28 25 22 19 30 29 24 29 32
43 44 44 44 44 45 45 45 44 45 45 43 39 42 38 35 30 29 28 28 30 31 31 35 36 37 36 31 29 26 28 26 24 24 28 25 28 28 28 25 23 26 27 30 38 39 37
43 44 44 44 44 45 46 45 45 45 44 43 39 41 42 37 30 34 33 32 30 33 37 38 35 35 33 30 29 31 31 34 25 22 30 30 27 27 25 25 29 34 38 37 37 37 37
Lifted_Index
13 13 13 13 13 13 13 13 13 13 14 14 14 14 13 13 13 13 13 13 13 13 13 13 13 13 13 11 10 10 10 8 8 7 7 6 6 6 5 5 5 5 5 5 4 4 4
12 12 12 12 12 13 13 13 13 13 13 13 13 13 13 12 12 13 13 13 13 13 13 13 13 13 12 11 11 11 11 10 9 8 6 6 5 5 5 5 5 5 5 5 4 4 4
11 11 11 11 11 12 12 12 12 13 13 13 13 12 12 12 12 12 12 12 12 12 12 12 12 12 11 11 11 11 11 11 10 9 6 5 5 5 5 5 5 4 4 4 4 4 4
11 10 10 10 11 11 11 12 12 12 12 12 12 12 11 11 11 11 11 12 12 11 11 11 11 11 10 11 11 11 11 11 10 9 8 6 5 5 5 4 4 4 4 4 4 4 3
10 10 10 10 10 10 10 11 11 11 12 12 12 11 10 10 10 10 11 11 11 10 10 9 9 9 9 10 10 10 10 10 9 9 9 7 6 5 5 4 4 3 3 3 3 3 2
10 10 10 10 10 10 10 10 10 10 11 11 11 10 10 10 9 10 10 10 9 8 8 7 7 8 8 8 9 9 8 8 8 8 8 7 6 5 5 4 3 3 2 2 2 1 1
10 10 10 10 10 10 10 9 9 10 10 11 11 10 10 9 9 9 9 8 8 7 7 6 7 7 8 8 8 8 7 6 6 7 6 6 5 5 5 4 3 3 2 2 1 1 0
9 9 9 9 9 9 9 9 9 9 10 10 10 10 9 9 8 8 7 7 7 7 7 7 7 7 8 8 8 8 7 6 5 5 5 5 4 4 5 5 4 3 3 2 1 1 0
9 9 9 9 9 9 9 8 8 9 9 10 10 9 8 8 8 7 6 6 7 7 6 6 6 7 7 7 7 7 7 6 5 4 3 3 4 4 5 5 4 3 3 2 1 1 0
8 8 8 8 8 8 8 8 8 8 9 9 9 9 8 8 7 6 6 6 6 6 5 4 5 5 5 5 5 6 6 6 5 4 3 3 3 3 4 4 4 3 2 2 1 1 1
7 7 6 6 7 7 7 7 8 8 8 8 9 9 8 8 7 6 6 6 5 4 3 4 5 5 4 4 4 5 5 6 5 4 3 3 3 3 3 3 3 3 2 1 1 1 1
6 5 5 5 6 6 7 7 7 7 7 8 8 8 8 8 7 6 5 5 4 3 3 4 4 4 4 4 4 4 4 5 5 4 3 2 2 3 3 3 3 3 2 1 1 1 1
5 5 5 5 5 6 6 6 7 7 7 7 7 8 8 8 7 6 5 5 4 3 3 3 4 4 4 4 3 3 3 4 4 4 3 2 2 2 2 2 3 3 3 2 1 1 1
5 5 5 5 5 5 6 6 6 7 7 7 7 7 8 7 7 6 5 4 4 3 3 4 4 4 4 4 3 3 3 3 3 3 3 2 2 2 2 3 3 3 3 2 1 0 1
5 5 5 5 4 5 5 6 6 6 7 7 7 7 7 7 6 5 5 4 4 4 4 4 4 4 4 3 3 2 2 1 1 2 2 2 2 2 2 3 3 3 3 2 1 0 0
5 5 5 4 4 4 4 5 5 6 6 7 7 7 7 5 5 4 5 5 4 4 4 4 4 4 3 3 3 2 1 1 1 1 2 1 1 1 2 2 2 2 2 2 2 1 0
5 5 4 4 4 3 3 4 5 5 6 6 7 6 5 4 4 4 5 5 4 4 4 4 4 3 3 3 3 2 1 1 1 1 1 1 1 1 1 1 2 2 2 2 2 1 0
5 5 4 4 4 3 2 3 4 5 6 6 6 6 4 3 4 4 5 4 4 4 4 4 4 4 3 3 3 2 1 2 2 2 1 1 1 1 1 1 1 1 2 2 2 1 1
5 5 4 4 3 2 2 2 3 4 5 6 6 5 4 3 3 4 4 4 4 4 4 4 4 4 4 4 3 3 2 2 3 3 2 1 1 1 0 0 1 1 1 1 1 1 1
5 5 4 4 3 2 2 2 3 4 5 5 5 5 4 3 3 4 4 4 4 4 4 4 4 4 4 4 4 3 3 3 3 3 3 2 1 0 0 -0 0 1 1 1 1 1 1
5 5 4 4 3 2 2 2 3 4 5 6 6 5 4 4 4 3 3 3 3 3 3 3 3 4 4 4 4 3 3 2 3 3 4 3 2 1 0 0 0 1 1 1 1 1 1
5 5 4 4 3 2 2 2 3 4 5 6 6 6 5 4 4 3 3 3 3 2 2 2 2 3 3 3 3 3 2 2 2 3 3 3 2 1 1 1 1 1 1 1 0 0 0
6 5 4 4 3 2 2 2 3 4 5 6 6 6 5 4 4 4 3 3 2 2 1 1 1 1 2 2 2 1 1 1 2 2 3 3 3 2 1 1 1 1 1 1 0 0 -0
6 5 4 3 3 2 2 2 3 4 5 5 5 5 5 5 4 4 3 2 2 2 1 1 0 0 1 0 0 -0 0 0 1 2 3 3 3 2 2 1 1 1 1 1 0 0 0
6 5 4 3 3 3 3 3 3 4 5 5 5 5 5 5 4 4 3 2 2 1 1 1 0 0 0 -0 -0 -1 -0 0 1 1 2 2 2 2 1 1 1 1 1 1 1 1 1
5 5 4 4 3 3 3 3 3 4 5 5 5 5 4 4 4 3 3 2 2 1 1 0 0 0 0 -0 -0 -0 -0 -0 0 1 1 2 1 1 1 1 1 1 1 1 1 1 1
5 5 4 4 3 3 3 3 3 4 4 5 5 5 4 4 3 3 2 2 2 1 1 0 0 0 -0 -0 -0 -0 -0 -0 -0 0 0 1 1 1 1 1 1 1 1 0 0 0 1
5 5 4 4 3 3 3 3 4 4 5 5 5 5 5 4 3 3 3 2 2 1 0 0 0 0 0 0 0 -0 -0 -0 -0 -0 -0 0 0 0 1 1 1 0 0 -0 0 0 1
5 5 4 4 3 3 3 4 4 5 5 6 6 5 5 4 4 3 3 3 2 1 1 0 0 0 0 0 0 -0 -0 -1 -0 -0 -0 -0 -0 0 0 1 0 -0 -1 -0 0 1 1